When you browse on this site, cookies collect data to enhance your experience and personalize the content and advertising you see.
Visit our Privacy Policy to learn more. By continuing to use the site, you agree to this use of cookies and data.
  • In Austria
  • List of Countries
  • For 7 days
  • Water Temperature
  • Satellite Maps
  • Weather Map
  • News
  • Weather Widgets
  • user-avatar
    Login

    Hourly Weather Oran

    Today, 27 June, Thursday

    Time Temperature Precipitation Wind Pressure Humidity
    00:00 +24°C° 0 mm 3 mps 751 mmHg 90%
    01:00 +24°C° 0 mm 3 mps 751 mmHg 88%
    02:00 +25°C° 0 mm 3 mps 750 mmHg 87%
    03:00 +25°C° 0 mm 2 mps 750 mmHg 85%
    04:00 +25°C° 0 mm 3 mps 751 mmHg 84%
    05:00 +25°C° 0 mm 3 mps 751 mmHg 83%
    06:00 +25°C° 0 mm 3 mps 751 mmHg 81%
    07:00 +26°C° 0 mm 3 mps 751 mmHg 74%
    08:00 +27°C° 0 mm 2 mps 751 mmHg 66%
    09:00 +29°C° 0 mm 2 mps 751 mmHg 58%
    10:00 +30°C° 0 mm 2 mps 751 mmHg 55%
    11:00 +31°C° 0 mm 3 mps 751 mmHg 52%
    12:00 +33°C° 0 mm 3 mps 751 mmHg 48%
    13:00 +34°C° 0 mm 3 mps 751 mmHg 47%
    14:00 +34°C° 0 mm 3 mps 750 mmHg 46%
    15:00 +35°C° 0 mm 3 mps 750 mmHg 44%
    16:00 +34°C° 0 mm 3 mps 749 mmHg 47%
    17:00 +33°C° 0 mm 3 mps 749 mmHg 50%
    18:00 +31°C° 0 mm 3 mps 749 mmHg 52%
    19:00 +29°C° 0 mm 3 mps 749 mmHg 64%
    20:00 +27°C° 0 mm 3 mps 750 mmHg 75%
    21:00 +25°C° 0 mm 3 mps 750 mmHg 86%
    22:00 +25°C° 0 mm 3 mps 750 mmHg 87%
    23:00 +25°C° 0 mm 3 mps 750 mmHg 87%

    Tomorrow, 28 June, Friday

    Time Temperature Precipitation Wind Pressure Humidity
    00:00 +25°C° 0 mm 4 mps 750 mmHg 88%
    01:00 +25°C° 0 mm 4 mps 750 mmHg 86%
    02:00 +25°C° 0 mm 4 mps 750 mmHg 85%
    03:00 +25°C° 0 mm 4 mps 750 mmHg 84%
    04:00 +25°C° 0 mm 4 mps 750 mmHg 84%
    05:00 +24°C° 0 mm 3 mps 750 mmHg 85%
    06:00 +24°C° 0 mm 3 mps 750 mmHg 85%
    07:00 +26°C° 0 mm 3 mps 750 mmHg 76%
    08:00 +28°C° 0 mm 2 mps 750 mmHg 67%
    09:00 +29°C° 0 mm 2 mps 750 mmHg 57%
    10:00 +31°C° 0 mm 2 mps 750 mmHg 51%
    11:00 +34°C° 0 mm 3 mps 750 mmHg 44%
    12:00 +36°C° 0 mm 3 mps 750 mmHg 38%
    13:00 +36°C° 0 mm 4 mps 749 mmHg 38%
    14:00 +36°C° 0 mm 5 mps 749 mmHg 39%
    15:00 +35°C° 0 mm 6 mps 749 mmHg 40%
    16:00 +34°C° 0 mm 6 mps 749 mmHg 42%
    17:00 +33°C° 0 mm 5 mps 749 mmHg 44%
    18:00 +32°C° 0 mm 5 mps 748 mmHg 46%
    19:00 +30°C° 0 mm 4 mps 749 mmHg 52%
    20:00 +28°C° 0 mm 3 mps 749 mmHg 57%
    21:00 +26°C° 0 mm 2 mps 749 mmHg 63%
    22:00 +26°C° 0 mm 2 mps 749 mmHg 66%
    23:00 +25°C° 0 mm 2 mps 749 mmHg 70%

    Day after tomorrow, 29 June, Saturday

    Time Temperature Precipitation Wind Pressure Humidity
    00:00 +25°C° 0 mm 2 mps 749 mmHg 73%
    01:00 +25°C° 0 mm 2 mps 749 mmHg 73%
    02:00 +24°C° 0 mm 2 mps 748 mmHg 73%
    03:00 +24°C° 0 mm 2 mps 748 mmHg 73%
    04:00 +24°C° 0 mm 2 mps 749 mmHg 77%
    05:00 +24°C° 0 mm 2 mps 749 mmHg 81%
    06:00 +24°C° 0 mm 3 mps 749 mmHg 86%
    07:00 +26°C° 0 mm 2 mps 749 mmHg 76%
    08:00 +28°C° 0 mm 2 mps 750 mmHg 65%
    09:00 +29°C° 0 mm 2 mps 750 mmHg 55%
    10:00 +31°C° 0 mm 2 mps 750 mmHg 50%
    11:00 +34°C° 0 mm 3 mps 749 mmHg 45%
    12:00 +36°C° 0 mm 3 mps 749 mmHg 40%
    13:00 +36°C° 0 mm 4 mps 749 mmHg 38%
    14:00 +37°C° 0 mm 4 mps 749 mmHg 35%
    15:00 +39°C° 0 mm 5 mps 748 mmHg 33%
    16:00 +37°C° 0 mm 5 mps 748 mmHg 35%
    17:00 +35°C° 0 mm 5 mps 748 mmHg 37%
    18:00 +34°C° 0 mm 5 mps 748 mmHg 39%
    19:00 +33°C° 0 mm 4 mps 749 mmHg 44%
    20:00 +30°C° 0 mm 3 mps 749 mmHg 50%
    21:00 +28°C° 0 mm 2 mps 750 mmHg 56%
    22:00 +28°C° 0 mm 3 mps 750 mmHg 56%
    23:00 +28°C° 0 mm 3 mps 750 mmHg 56%

    30 June, Sunday

    Time Temperature Precipitation Wind Pressure Humidity
    00:00 +28°C° 0 mm 4 mps 749 mmHg 56%
    01:00 +27°C° 0 mm 3 mps 749 mmHg 64%
    02:00 +26°C° 0 mm 2 mps 749 mmHg 71%
    03:00 +25°C° 0 mm 2 mps 749 mmHg 78%
    04:00 +25°C° 0 mm 2 mps 749 mmHg 80%
    05:00 +24°C° 0 mm 3 mps 750 mmHg 82%
    06:00 +24°C° 0 mm 3 mps 750 mmHg 83%
    07:00 +26°C° 0 mm 3 mps 751 mmHg 75%
    08:00 +28°C° 0 mm 3 mps 751 mmHg 66%
    09:00 +29°C° 0 mm 2 mps 751 mmHg 57%
    10:00 +31°C° 0 mm 3 mps 751 mmHg 52%
    11:00 +33°C° 0 mm 3 mps 751 mmHg 46%
    12:00 +35°C° 0 mm 3 mps 751 mmHg 41%
    13:00 +35°C° 0 mm 4 mps 751 mmHg 40%
    14:00 +36°C° 0 mm 5 mps 750 mmHg 38%
    15:00 +36°C° 0 mm 5 mps 750 mmHg 37%
    16:00 +35°C° 0 mm 4 mps 750 mmHg 40%
    17:00 +34°C° 0 mm 4 mps 750 mmHg 43%
    18:00 +33°C° 0 mm 3 mps 750 mmHg 46%
    19:00 +29°C° 0 mm 3 mps 751 mmHg 57%
    20:00 +27°C° 0 mm 4 mps 751 mmHg 69%
    21:00 +25°C° 0 mm 5 mps 752 mmHg 81%
    22:00 +25°C° 0 mm 3 mps 752 mmHg 81%
    23:00 +25°C° 0 mm 2 mps 752 mmHg 81%

    1 July, Monday

    Time Temperature Precipitation Wind Pressure Humidity
    00:00 +25°C° 0 mm 1 mps 752 mmHg 81%
    01:00 +24°C° 0 mm 1 mps 751 mmHg 82%
    02:00 +24°C° 0 mm 1 mps 751 mmHg 83%
    03:00 +24°C° 0 mm 1 mps 750 mmHg 83%
    04:00 +24°C° 0 mm 2 mps 751 mmHg 83%
    05:00 +24°C° 0 mm 3 mps 751 mmHg 84%
    06:00 +24°C° 0 mm 3 mps 751 mmHg 84%
    07:00 +26°C° 0 mm 3 mps 751 mmHg 75%
    08:00 +27°C° 0 mm 4 mps 752 mmHg 66%
    09:00 +29°C° 0 mm 4 mps 752 mmHg 57%
    10:00 +30°C° 0 mm 4 mps 752 mmHg 53%
    11:00 +32°C° 0 mm 4 mps 752 mmHg 50%
    12:00 +33°C° 0 mm 4 mps 752 mmHg 47%
    13:00 +33°C° 0 mm 4 mps 751 mmHg 47%
    14:00 +33°C° 0 mm 4 mps 751 mmHg 47%
    15:00 +33°C° 0 mm 4 mps 750 mmHg 46%
    16:00 +31°C° 0 mm 3 mps 750 mmHg 49%
    17:00 +30°C° 0 mm 3 mps 750 mmHg 52%
    18:00 +29°C° 0 mm 2 mps 750 mmHg 54%
    19:00 +27°C° 0 mm 2 mps 750 mmHg 60%
    20:00 +26°C° 0 mm 2 mps 750 mmHg 65%
    21:00 +25°C° 0 mm 2 mps 751 mmHg 71%
    22:00 +24°C° 0 mm 2 mps 751 mmHg 73%
    23:00 +24°C° 0 mm 2 mps 751 mmHg 75%

    2 July, Tuesday

    Time Temperature Precipitation Wind Pressure Humidity
    00:00 +24°C° 0 mm 2 mps 751 mmHg 78%
    01:00 +23°C° 0 mm 2 mps 750 mmHg 79%
    02:00 +23°C° 0 mm 2 mps 750 mmHg 81%
    03:00 +21°C° 0 mm 2 mps 750 mmHg 82%
    04:00 +23°C° 0 mm 1 mps 750 mmHg 79%
    05:00 +24°C° 0 mm 1 mps 750 mmHg 76%
    06:00 +24°C° 0 mm 1 mps 750 mmHg 72%
    07:00 +26°C° 0 mm 1 mps 750 mmHg 65%
    08:00 +27°C° 0 mm 1 mps 750 mmHg 57%
    09:00 +29°C° 0 mm 1 mps 750 mmHg 50%
    10:00 +30°C° 0 mm 2 mps 750 mmHg 48%
    11:00 +31°C° 0 mm 3 mps 750 mmHg 45%
    12:00 +32°C° 0 mm 4 mps 750 mmHg 43%
    13:00 +32°C° 0 mm 4 mps 750 mmHg 45%
    14:00 +32°C° 0 mm 4 mps 749 mmHg 46%
    15:00 +32°C° 0 mm 4 mps 749 mmHg 48%
    16:00 +30°C° 0 mm 3 mps 749 mmHg 51%
    17:00 +29°C° 0 mm 3 mps 748 mmHg 54%
    18:00 +28°C° 0 mm 2 mps 748 mmHg 57%
    19:00 +27°C° 0 mm 2 mps 748 mmHg 63%
    20:00 +26°C° 0 mm 2 mps 749 mmHg 69%
    21:00 +25°C° 0 mm 1 mps 749 mmHg 75%
    22:00 +25°C° 0 mm 1 mps 749 mmHg 78%
    23:00 +24°C° 0 mm 1 mps 749 mmHg 81%
    Show more